User: anonymous   Login
Location: Unspecified
(0.0000°N, 0.0000°E)
Time: 22:25:13
(UTC+00:00)
Language:

STARLINK-31888 - Orbit

View from above orbital plane
View from above orbital plane
View from above satellite
View from above satellite

Ground track
Ground track

The orbit is defined by the following mean orbital elements,

1 59788U          26145.42283397 +.00000000 +00000-0 -12804-4 0 00006
2 59788  43.0027 135.3053 0001172 279.6540  80.4179 15.27586345    04
Epoch (UTC): 25 May 2026 10:08:52
Eccentricity: 0.0001172
inclination: 43.0027°
perigee height: 482 km
apogee height: 484 km
right ascension of ascending node: 135.3053°
argument of perigee: 279.6540°
revolutions per day: 15.27586345
mean anomaly at epoch: 80.4179°

The dashed part of the orbit path shows where the satellite is in the earth's shadow,  

DLR